Arcata, CA

3:35 PM PST on February 09, 2016 (GMT -0800)
Arcata

Weather History for KACV - October, 2013

Change the Weather History Date:

Wednesday, October 16, 2013

  Actual Average Record
Temperature  
Mean Temperature 53 °F -  
Max Temperature 66 °F 60 °F 85 °F (1999)
Min Temperature 42 °F 42 °F 37 °F (1996)
Degree Days  
Heating Degree Days 12    
Growing Degree Days 3 (Base 50)    
Moisture  
Dew Point 40 °F    
Average Humidity 66    
Maximum Humidity 86    
Minimum Humidity 37    
Precipitation  
Precipitation 0.00 in - - ()
Sea Level Pressure  
Sea Level Pressure 30.08 in    
Wind  
Wind Speed 1 mph (North)    
Max Wind Speed 6 mph    
Max Gust Speed -    
Visibility 10 miles    
Events      
Averages and records for this station are not official NWS values.
T = Trace of Precipitation, MM = Missing Value Source: NWS Daily Summary

Daily Weather History Graph

Daily Weather History Graph

Search for Another Location

Airport or City:

Trip Planner

Search our weather history database for the weather conditions in past years. The results will help you decide how hot, cold, wet, or windy it might be!

Date:

Astronomy

Oct. 16, 2013 Rise Set
Actual Time 7:29 AM PDT 6:33 PM PDT
Civil Twilight 7:01 AM PDT 7:01 PM PDT
Nautical Twilight 6:29 AM PDT 7:33 PM PDT
Astronomical Twilight 5:57 AM PDT 8:05 PM PDT
Moon 5:17 PM PDT (10/16) 5:02 AM PDT (10/16)
Length of Visible Light 11h 59m
Length of Day
11h 04m
Waxing Gibbous, 94% of the Moon is Illuminated
Oct 16
Waxing Gibbous
Oct 18
Full
Oct 26
Last Quarter
Nov 3
New
Nov 9
First Quarter

Hourly Weather History & Observations

Time (PDT) Temp. Windchill Dew Point Humidity Pressure Visibility Wind Dir Wind Speed Gust Speed Precip Events Conditions
12:53 AM 45.0 °F - 41.0 °F 86% 30.02 in 10.0 mi Calm Calm - N/A   Clear
1:53 AM 44.1 °F - 39.9 °F 85% 30.03 in 10.0 mi Calm Calm - N/A   Clear
2:53 AM 43.0 °F - 39.0 °F 86% 30.03 in 10.0 mi Calm Calm - N/A   Clear
3:53 AM 42.1 °F - 37.9 °F 85% 30.03 in 10.0 mi Calm Calm - N/A   Clear
4:53 AM 42.1 °F - 37.9 °F 85% 30.03 in 10.0 mi Calm Calm - N/A   Clear
5:53 AM 43.0 °F 39.5 °F 37.0 °F 80% 30.04 in 10.0 mi ESE 5.8 mph - N/A   Clear
6:53 AM 43.0 °F - 37.0 °F 80% 30.06 in 10.0 mi Calm Calm - N/A   Clear
7:53 AM 45.0 °F 43.5 °F 37.0 °F 74% 30.08 in 10.0 mi ENE 3.5 mph - N/A   Clear
8:53 AM 48.9 °F - 41.0 °F 74% 30.09 in 10.0 mi ESE 3.5 mph - N/A   Clear
9:53 AM 60.1 °F - 44.1 °F 55% 30.09 in 10.0 mi Calm Calm - N/A   Clear
10:53 AM 60.1 °F - 46.0 °F 60% 30.10 in 5.0 mi Calm Calm - N/A   Haze
11:53 AM 64.9 °F - 43.0 °F 45% 30.09 in 10.0 mi West 3.5 mph - N/A   Clear
12:53 PM 62.1 °F - 37.9 °F 41% 30.10 in 10.0 mi NW 5.8 mph - N/A   Clear
1:53 PM 64.0 °F - 37.0 °F 37% 30.10 in 10.0 mi WNW 4.6 mph - N/A   Clear
2:53 PM 64.9 °F - 39.0 °F 39% 30.11 in 10.0 mi NW 4.6 mph - N/A   Clear
3:53 PM 64.9 °F - 39.9 °F 40% 30.11 in 10.0 mi NW 3.5 mph - N/A   Clear
4:53 PM 63.0 °F - 42.1 °F 46% 30.11 in 10.0 mi NW 4.6 mph - N/A   Clear
5:53 PM 62.1 °F - 43.0 °F 50% 30.10 in 10.0 mi Calm Calm - N/A   Clear
6:53 PM 55.0 °F - 41.0 °F 59% 30.10 in 10.0 mi Calm Calm - N/A   Clear
7:53 PM 51.1 °F - 41.0 °F 68% 30.10 in 10.0 mi East 3.5 mph - N/A   Clear
8:53 PM 48.9 °F - 41.0 °F 74% 30.12 in 10.0 mi Calm Calm - N/A   Clear
9:53 PM 46.9 °F - 41.0 °F 80% 30.12 in 10.0 mi Calm Calm - N/A   Clear
10:53 PM 46.0 °F 43.9 °F 39.9 °F 79% 30.12 in 10.0 mi ESE 4.6 mph - N/A   Clear
11:53 PM 44.1 °F - 39.9 °F 85% 30.12 in 10.0 mi Calm Calm - N/A   Clear